Location: Abraham Lincoln Continuation High School
(33.9711°N, 117.3662°W)
Time: 06:20:50
(UTC+00:00)

Lacrosse 5 - Pass Details

Date: 22 January 2021
Orbit: 715 x 724 km, 57.0° (Epoch: 01 March)

Event Time Altitude Azimuth Distance (km) Brightness Sun altitude
Rises 02:42:21 0° 325° (NW) 3,118 5.5 -19.1°
Reaches altitude 10° 02:44:48 10° 331° (NNW) 2,196 4.6 -19.6°
Maximum altitude 02:49:44 51° 47° (NE) 892 2.0 -20.6°
Enters shadow 02:50:26 47° 76° (ENE) 938 2.0 -20.8°
